When you browse on this site, cookies collect data to enhance your experience and personalize the content and advertising you see.
Visit our Privacy Policy to learn more. By continuing to use the site, you agree to this use of cookies and data.
  • In Romania
  • List of Countries
  • For 7 days
  • Water Temperature
  • Weather Map
  • Weather Widgets
  • user-avatar
    Login

    Hourly Weather Boa Vista

    Today, 27 February, Thursday

    Time Temperature Precipitation Wind Pressure Humidity
    00:00 +30°C° 0 mm 4 mps 752 mmHg 48%
    01:00 +29°C° 0 mm 5 mps 752 mmHg 51%
    02:00 +29°C° 0 mm 5 mps 751 mmHg 53%
    03:00 +28°C° 0 mm 5 mps 752 mmHg 57%
    04:00 +27°C° 0 mm 5 mps 752 mmHg 60%
    05:00 +27°C° 0 mm 4 mps 752 mmHg 64%
    06:00 +27°C° 0 mm 5 mps 752 mmHg 63%
    07:00 +28°C° 0 mm 5 mps 753 mmHg 62%
    08:00 +28°C° 0 mm 5 mps 754 mmHg 61%
    09:00 +32°C° 0 mm 5 mps 754 mmHg 52%
    10:00 +34°C° 0 mm 5 mps 754 mmHg 42%
    11:00 +37°C° 0 mm 5 mps 754 mmHg 33%
    12:00 +38°C° 0 mm 4 mps 753 mmHg 30%
    13:00 +40°C° 0 mm 4 mps 752 mmHg 26%
    14:00 +40°C° 0 mm 3 mps 751 mmHg 23%
    15:00 +40°C° 0 mm 3 mps 750 mmHg 23%
    16:00 +40°C° 0 mm 3 mps 750 mmHg 23%
    17:00 +40°C° 0 mm 3 mps 749 mmHg 24%
    18:00 +38°C° 0 mm 2 mps 750 mmHg 27%
    19:00 +36°C° 0 mm 2 mps 750 mmHg 31%
    20:00 +34°C° 0 mm 2 mps 751 mmHg 34%
    21:00 +34°C° 0 mm 3 mps 751 mmHg 36%
    22:00 +33°C° 0 mm 3 mps 752 mmHg 38%
    23:00 +33°C° 0 mm 4 mps 752 mmHg 40%

    Tomorrow, 28 February, Friday

    Time Temperature Precipitation Wind Pressure Humidity
    00:00 +32°C° 0 mm 5 mps 752 mmHg 44%
    01:00 +30°C° 0 mm 6 mps 752 mmHg 49%
    02:00 +29°C° 0 mm 6 mps 751 mmHg 53%
    03:00 +29°C° 0 mm 6 mps 751 mmHg 55%
    04:00 +28°C° 0 mm 6 mps 752 mmHg 57%
    05:00 +27°C° 0 mm 6 mps 752 mmHg 59%
    06:00 +28°C° 0 mm 6 mps 752 mmHg 57%
    07:00 +28°C° 0 mm 6 mps 753 mmHg 55%
    08:00 +29°C° 0 mm 7 mps 754 mmHg 53%
    09:00 +32°C° 0 mm 6 mps 754 mmHg 48%
    10:00 +34°C° 0 mm 6 mps 754 mmHg 42%
    11:00 +36°C° 0 mm 6 mps 754 mmHg 36%
    12:00 +39°C° 0 mm 5 mps 753 mmHg 34%
    13:00 +40°C° 0 mm 4 mps 752 mmHg 31%
    14:00 +40°C° 0 mm 3 mps 750 mmHg 28%
    15:00 +40°C° 0 mm 3 mps 750 mmHg 28%
    16:00 +40°C° 0 mm 3 mps 749 mmHg 28%
    17:00 +40°C° 0 mm 3 mps 749 mmHg 27%
    18:00 +39°C° 0 mm 3 mps 749 mmHg 30%
    19:00 +37°C° 0 mm 3 mps 749 mmHg 33%
    20:00 +35°C° 0 mm 3 mps 750 mmHg 37%
    21:00 +34°C° 0 mm 4 mps 751 mmHg 39%
    22:00 +34°C° 0 mm 5 mps 752 mmHg 40%
    23:00 +33°C° 0 mm 5 mps 752 mmHg 42%

    Day after tomorrow, 29 February, Saturday

    Time Temperature Precipitation Wind Pressure Humidity
    00:00 +32°C° 0 mm 5 mps 752 mmHg 47%
    01:00 +30°C° 0 mm 5 mps 752 mmHg 52%
    02:00 +29°C° 0 mm 5 mps 752 mmHg 57%
    03:00 +29°C° 0 mm 6 mps 752 mmHg 57%
    04:00 +28°C° 0 mm 6 mps 752 mmHg 57%
    05:00 +28°C° 0 mm 6 mps 752 mmHg 58%
    06:00 +28°C° 0 mm 6 mps 753 mmHg 56%
    07:00 +29°C° 0 mm 6 mps 753 mmHg 53%
    08:00 +29°C° 0 mm 6 mps 754 mmHg 51%
    09:00 +32°C° 0 mm 6 mps 754 mmHg 45%
    10:00 +35°C° 0 mm 6 mps 754 mmHg 40%
    11:00 +37°C° 0 mm 5 mps 754 mmHg 34%
    12:00 +39°C° 0 mm 5 mps 753 mmHg 31%
    13:00 +41°C° 0 mm 4 mps 751 mmHg 28%
    14:00 +42°C° 0 mm 3 mps 750 mmHg 26%
    15:00 +42°C° 0 mm 3 mps 750 mmHg 26%
    16:00 +42°C° 0 mm 3 mps 749 mmHg 26%
    17:00 +40°C° 0 mm 3 mps 749 mmHg 26%
    18:00 +39°C° 0 mm 3 mps 749 mmHg 29%
    19:00 +37°C° 0 mm 3 mps 750 mmHg 32%
    20:00 +35°C° 0 mm 2 mps 750 mmHg 35%
    21:00 +34°C° 0 mm 4 mps 751 mmHg 40%
    22:00 +34°C° 0 mm 5 mps 752 mmHg 45%
    23:00 +33°C° 0 mm 6 mps 752 mmHg 50%

    1 March, Sunday

    Time Temperature Precipitation Wind Pressure Humidity
    00:00 +32°C° 0 mm 6 mps 752 mmHg 54%
    01:00 +30°C° 0 mm 5 mps 752 mmHg 57%
    02:00 +29°C° 0 mm 5 mps 751 mmHg 61%
    03:00 +28°C° 0 mm 5 mps 752 mmHg 63%
    04:00 +28°C° 0 mm 5 mps 752 mmHg 65%
    05:00 +27°C° 0 mm 4 mps 752 mmHg 66%
    06:00 +28°C° 0 mm 5 mps 753 mmHg 65%
    07:00 +28°C° 0 mm 5 mps 753 mmHg 63%
    08:00 +29°C° 0 mm 5 mps 754 mmHg 62%
    09:00 +32°C° 0 mm 5 mps 754 mmHg 54%
    10:00 +35°C° 0 mm 5 mps 754 mmHg 46%
    11:00 +37°C° 0 mm 5 mps 753 mmHg 39%
    12:00 +38°C° 0 mm 4 mps 752 mmHg 35%
    13:00 +41°C° 0 mm 4 mps 751 mmHg 32%
    14:00 +42°C° 0 mm 3 mps 750 mmHg 29%
    15:00 +42°C° 0 mm 3 mps 749 mmHg 29%
    16:00 +40°C° 0 mm 3 mps 749 mmHg 29%
    17:00 +40°C° 0 mm 2 mps 748 mmHg 29%
    18:00 +39°C° 0 mm 2 mps 749 mmHg 32%
    19:00 +37°C° 0 mm 2 mps 749 mmHg 34%
    20:00 +36°C° 0 mm 2 mps 750 mmHg 37%
    21:00 +35°C° 0 mm 3 mps 750 mmHg 40%
    22:00 +35°C° 0 mm 4 mps 751 mmHg 42%
    23:00 +34°C° 0 mm 5 mps 752 mmHg 44%

    2 March, Monday

    Time Temperature Precipitation Wind Pressure Humidity
    00:00 +33°C° 0 mm 5 mps 751 mmHg 48%
    01:00 +32°C° 0 mm 5 mps 751 mmHg 51%
    02:00 +30°C° 0 mm 5 mps 751 mmHg 54%
    03:00 +30°C° 0 mm 5 mps 751 mmHg 57%
    04:00 +29°C° 0 mm 5 mps 751 mmHg 59%
    05:00 +28°C° 0 mm 5 mps 751 mmHg 62%
    06:00 +29°C° 0 mm 5 mps 752 mmHg 61%
    07:00 +29°C° 0 mm 5 mps 752 mmHg 60%
    08:00 +29°C° 0 mm 4 mps 753 mmHg 59%
    09:00 +32°C° 0 mm 4 mps 753 mmHg 51%
    10:00 +35°C° 0 mm 4 mps 753 mmHg 44%
    11:00 +37°C° 0 mm 4 mps 753 mmHg 37%
    12:00 +38°C° 0 mm 4 mps 752 mmHg 34%
    13:00 +41°C° 0 mm 4 mps 750 mmHg 31%
    14:00 +42°C° 0 mm 3 mps 749 mmHg 28%
    15:00 +42°C° 0 mm 3 mps 749 mmHg 28%
    16:00 +40°C° 0 mm 2 mps 748 mmHg 28%
    17:00 +40°C° 0 mm 2 mps 748 mmHg 29%
    18:00 +38°C° 0 mm 2 mps 749 mmHg 32%
    19:00 +36°C° 0 mm 1 mps 749 mmHg 35%
    20:00 +34°C° 0 mm 1 mps 749 mmHg 39%
    21:00 +35°C° 0 mm 2 mps 750 mmHg 39%
    22:00 +35°C° 0 mm 3 mps 751 mmHg 39%
    23:00 +35°C° 0 mm 4 mps 751 mmHg 39%

    3 March, Tuesday

    Time Temperature Precipitation Wind Pressure Humidity
    00:00 +34°C° 0 mm 4 mps 751 mmHg 42%
    01:00 +33°C° 0 mm 4 mps 751 mmHg 46%
    02:00 +32°C° 0 mm 4 mps 751 mmHg 49%
    03:00 +30°C° 0 mm 4 mps 751 mmHg 52%
    04:00 +30°C° 0 mm 5 mps 751 mmHg 55%
    05:00 +29°C° 0 mm 5 mps 751 mmHg 58%
    06:00 +29°C° 0 mm 5 mps 752 mmHg 57%
    07:00 +30°C° 0 mm 5 mps 753 mmHg 55%
    08:00 +30°C° 0 mm 5 mps 753 mmHg 54%
    09:00 +33°C° 0 mm 5 mps 753 mmHg 49%
    10:00 +35°C° 0 mm 5 mps 753 mmHg 43%
    11:00 +37°C° 0 mm 5 mps 753 mmHg 37%
    12:00 +39°C° 0 mm 5 mps 752 mmHg 35%
    13:00 +40°C° 0 mm 4 mps 751 mmHg 33%
    14:00 +41°C° 0 mm 4 mps 750 mmHg 31%
    15:00 +39°C° 0 mm 3 mps 749 mmHg 32%
    16:00 +39°C° 0 mm 3 mps 749 mmHg 32%
    17:00 +39°C° 0 mm 3 mps 748 mmHg 33%
    18:00 +38°C° 0 mm 3 mps 749 mmHg 36%
    19:00 +37°C° 0 mm 3 mps 749 mmHg 38%
    20:00 +36°C° 0 mm 3 mps 750 mmHg 40%
    21:00 +35°C° 0 mm 3 mps 750 mmHg 42%
    22:00 +34°C° 0 mm 4 mps 751 mmHg 44%
    23:00 +34°C° 0 mm 5 mps 751 mmHg 47%
    Show more